Lapse_Rate
9.4 8.6 5.0 4.9 5.4 5.7 5.6 5.9 5.9 5.8 5.6 5.9 6.1 6.3 6.2 6.3 6.3 6.5 6.2 6.5 6.7 7.0 7.6 7.1 7.0 7.0 6.4 6.3 6.4 6.2 6.0 6.1 6.1 5.9 5.8 6.1 6.5 6.7 6.8 6.1 6.1 5.4 5.2
9.7 7.5 4.7 4.9 5.1 5.6 5.5 5.9 5.8 5.7 5.6 5.8 6.1 6.3 6.3 6.4 6.6 6.5 6.7 6.8 7.3 7.6 7.3 7.2 7.0 6.8 6.8 6.1 6.1 6.0 5.9 6.0 5.9 5.8 5.9 6.0 6.1 6.0 5.8 5.3 5.3 5.4 5.2
9.7 8.7 5.3 4.9 5.1 5.5 5.4 5.5 5.6 5.7 5.6 5.7 5.8 6.2 6.4 6.6 6.8 6.7 6.9 6.9 7.1 7.0 7.0 7.1 6.8 7.0 6.6 6.1 5.6 5.5 5.6 6.0 6.4 7.1 7.8 8.5 7.0 5.7 5.3 4.9 5.0 5.1 5.7
9.8 9.4 8.0 4.9 4.8 5.2 5.3 5.3 5.5 5.7 5.6 5.7 5.8 6.1 6.3 6.9 7.2 7.0 7.3 6.9 6.8 7.2 7.1 6.5 6.3 6.5 5.9 5.7 5.5 5.5 6.0 6.5 7.5 7.8 9.5 9.6 7.2 5.3 5.3 5.5 6.6 6.3 5.9
9.2 8.4 8.3 5.1 5.1 4.9 5.1 5.2 5.3 5.5 5.6 5.7 5.7 6.1 6.4 7.2 7.8 7.4 7.3 6.6 6.6 6.2 5.7 5.9 5.6 5.3 5.1 5.2 4.8 4.9 5.4 6.3 7.6 9.5 9.5 8.8 6.8 5.6 5.8 5.9 5.6 5.5 6.0
8.0 8.0 6.3 5.3 5.2 4.9 5.0 5.2 5.3 5.4 5.6 5.6 5.7 6.0 6.5 7.3 7.1 7.4 6.4 5.8 5.8 5.8 5.3 5.3 5.0 4.7 4.4 4.3 4.2 4.6 5.5 6.6 9.3 9.4 7.9 6.8 5.8 5.5 5.4 5.4 5.3 5.3 5.3
8.2 7.9 7.0 5.6 5.0 4.9 5.0 5.2 5.4 5.6 5.7 5.8 5.9 6.0 6.5 7.2 6.6 6.8 5.9 5.7 5.7 5.5 4.9 4.7 4.7 4.3 4.1 4.1 4.1 4.4 4.8 7.4 9.6 9.6 8.7 6.4 5.7 5.7 5.6 5.6 5.7 5.7 5.8
8.6 7.1 7.8 6.3 5.1 5.0 5.0 4.9 5.4 6.0 5.9 6.1 5.8 6.2 6.8 6.2 6.6 6.2 6.0 5.8 5.5 5.1 4.7 4.6 4.6 4.3 4.0 3.9 3.9 4.0 4.8 6.9 9.6 9.2 7.0 5.8 5.5 5.7 5.6 5.5 5.6 5.7 5.9
7.6 6.3 7.4 7.2 6.1 5.0 4.9 5.0 5.8 5.9 6.0 5.8 5.9 6.4 6.3 5.6 5.7 5.9 5.9 5.8 5.4 5.0 4.6 4.4 4.4 4.2 4.0 3.7 3.5 3.7 4.8 7.6 9.6 9.5 8.3 5.9 5.4 5.6 5.4 5.5 5.6 5.7 5.7
6.7 6.3 7.0 8.2 8.2 7.5 6.1 5.2 5.6 5.7 5.7 5.9 6.0 6.3 5.6 4.9 5.3 6.0 5.6 6.1 5.3 4.6 4.3 4.3 4.3 4.1 3.9 3.5 3.3 4.5 6.1 7.7 9.5 9.3 6.9 5.5 5.5 5.6 5.4 5.4 5.5 5.5 5.4
5.8 5.4 7.1 8.3 9.6 9.4 7.6 6.1 5.1 5.3 5.6 5.5 5.7 5.8 4.9 6.5 7.0 6.5 7.4 5.4 4.9 4.7 4.4 4.5 4.3 3.8 3.4 3.3 3.6 4.7 5.7 9.7 9.7 9.3 6.1 5.0 5.3 5.3 5.1 5.1 5.1 5.1 5.2
5.7 5.5 6.7 8.9 9.8 9.7 8.7 6.2 6.7 6.4 6.4 6.4 6.3 6.3 7.9 8.8 9.0 8.2 6.2 5.0 4.7 4.7 4.8 4.6 4.3 4.1 5.1 5.9 5.5 5.1 8.8 9.7 9.6 9.2 5.7 4.9 5.3 5.3 5.1 5.0 5.0 5.1 5.2
4.9 5.2 6.0 9.6 9.9 9.8 9.3 6.6 6.4 6.6 7.1 6.8 7.1 8.5 9.6 9.8 9.0 7.4 6.5 6.5 5.8 5.4 5.8 5.2 4.8 6.4 9.4 9.6 8.7 9.7 9.7 9.7 9.6 9.3 5.2 5.0 5.4 5.6 5.4 5.2 5.1 5.1 5.2
5.9 5.7 5.4 9.3 9.8 9.9 9.9 7.2 7.0 7.3 7.7 7.6 7.8 9.6 9.9 10.1 9.3 7.4 8.0 8.0 7.6 7.8 7.5 7.3 8.3 9.7 9.6 9.7 9.7 9.7 9.7 9.7 9.7 9.5 5.2 4.7 5.3 5.6 5.5 5.4 5.3 5.3 5.3
6.2 5.7 5.3 7.6 9.5 10.1 9.7 9.0 7.6 7.1 7.8 8.9 9.2 9.7 9.8 9.8 10.0 7.8 7.7 7.6 9.5 9.6 9.5 9.6 9.7 9.7 9.7 9.7 9.7 9.7 9.7 9.7 9.7 9.6 7.3 4.8 4.8 5.3 5.5 5.5 5.6 5.5 5.4
6.2 6.7 4.5 5.7 9.1 9.9 9.9 9.7 8.8 7.5 7.7 9.8 9.8 9.0 8.1 9.3 9.7 8.5 8.1 8.7 9.6 9.6 9.6 9.6 9.7 9.7 9.7 9.7 9.7 9.7 9.6 9.4 9.6 9.6 9.3 5.4 4.8 4.7 5.3 5.7 6.0 5.9 5.8
4.8 6.0 3.8 5.4 8.4 9.7 9.6 9.7 9.8 9.9 10.0 10.0 10.0 8.9 7.6 9.4 9.6 9.7 9.8 9.8 9.6 9.6 9.6 9.6 9.6 9.6 9.7 9.7 9.7 9.7 9.6 9.7 9.1 9.2 9.6 9.3 5.5 4.8 4.8 5.6 6.3 6.2 6.0
4.7 6.2 4.2 5.8 8.5 8.7 9.7 9.8 9.9 9.9 10.0 10.0 10.0 9.7 9.2 9.6 9.6 9.6 9.6 9.7 9.6 9.6 9.6 9.6 9.5 9.2 9.4 9.4 9.5 9.5 9.3 9.0 9.5 9.7 9.0 9.0 9.2 8.4 5.3 5.2 5.4 6.0 6.4
4.2 5.7 6.0 5.7 8.1 7.7 8.9 9.4 9.7 9.9 10.0 9.8 9.7 9.7 9.6 9.6 9.6 9.6 9.8 9.7 9.6 9.5 9.6 9.4 9.2 9.5 9.1 9.1 8.7 9.0 8.7 8.4 8.1 9.3 9.6 9.6 9.3 8.7 9.4 7.2 6.2 5.6 5.5
5.2 4.7 5.1 5.4 6.7 7.5 7.1 7.3 8.8 9.5 9.8 9.9 9.8 9.6 9.6 9.6 9.5 9.7 9.6 9.6 9.3 9.0 8.8 8.4 9.0 9.1 9.2 9.3 8.1 8.0 8.0 8.2 8.9 8.8 9.5 9.6 9.6 9.1 8.6 9.3 6.9 6.0 5.6
5.5 4.3 5.7 5.9 6.6 6.8 5.8 5.4 6.8 8.4 9.5 9.5 9.4 9.3 8.9 9.6 9.2 9.0 9.6 9.6 9.1 8.6 9.1 8.3 8.4 7.5 7.3 7.4 7.8 8.1 8.7 9.5 9.0 8.4 8.0 8.0 8.8 7.7 8.0 8.9 9.1 8.3 5.6
5.8 4.3 5.5 6.8 6.6 6.5 5.9 6.7 7.1 7.9 8.6 8.4 7.9 8.6 8.0 9.0 8.2 8.5 9.3 9.4 9.4 9.1 8.8 8.4 8.0 7.2 7.5 7.4 8.0 8.2 7.9 7.9 8.0 7.2 6.7 6.3 6.8 5.6 4.6 4.0 4.9 5.8 5.4
3.6 4.6 4.8 5.9 6.1 6.4 6.6 6.7 7.2 7.7 8.3 8.1 8.2 8.6 8.4 8.8 8.3 8.0 8.8 9.0 8.5 8.1 8.3 7.5 6.9 6.9 7.4 8.3 8.2 7.8 7.6 7.2 7.8 7.3 6.4 5.2 4.8 4.8 3.7 3.3 3.4 3.6 3.4
4.7 3.7 5.4 6.2 5.3 6.1 6.8 6.7 7.0 6.8 7.1 7.8 7.4 7.8 7.5 8.3 7.9 7.1 7.6 6.4 6.4 5.6 6.4 6.4 7.0 6.9 6.6 5.5 6.0 6.5 6.9 7.2 7.0 7.4 7.2 6.8 6.2 5.8 4.4 3.5 2.5 2.4 2.4
6.1 4.5 5.8 6.1 5.9 5.3 6.1 6.5 6.7 6.7 6.3 6.1 6.9 6.4 6.3 6.8 6.1 5.5 5.2 5.1 5.3 6.0 6.7 6.6 5.8 4.5 4.6 5.9 6.3 6.8 6.1 6.3 7.0 6.9 7.5 6.4 4.6 4.5 4.1 2.6 3.1 2.1 1.7
5.7 3.8 5.5 5.1 5.9 5.7 6.0 6.2 6.2 6.8 7.1 6.5 6.8 7.1 6.6 5.7 5.0 5.1 5.7 5.5 5.3 5.7 5.3 4.4 3.7 4.6 6.1 6.3 6.9 6.9 6.6 6.9 6.7 6.3 6.0 6.8 6.7 7.3 5.3 4.0 3.2 2.8 2.6
Wind_Speed
15 22 22 23 20 18 17 21 23 23 22 21 22 23 21 18 19 18 20 19 17 17 19 18 18 17 19 18 18 19 20 21 21 23 22 22 22 23 21 22 18 19 19
20 26 22 22 21 18 18 20 23 23 22 22 23 23 21 21 21 21 22 22 19 18 19 17 15 17 22 20 19 19 19 18 18 22 24 23 22 21 20 21 18 19 20
20 26 26 22 19 19 18 20 24 23 23 23 23 23 23 23 22 22 21 21 19 19 19 16 19 20 22 20 20 18 15 11 7 12 20 18 18 19 19 18 18 19 19
18 23 26 24 21 19 19 19 23 23 24 24 24 24 23 22 21 21 19 21 21 20 18 19 19 19 19 18 18 17 12 10 9 6 15 17 17 17 17 17 18 18 19
17 21 23 23 22 20 19 19 21 23 23 25 25 24 23 22 22 18 18 22 20 21 19 17 17 17 17 17 16 14 11 9 9 16 15 16 16 16 17 17 18 18 18
19 20 25 23 23 21 20 19 21 22 23 23 24 24 24 23 21 18 18 21 21 20 20 17 16 16 16 14 14 13 8 2 10 16 16 18 17 16 16 16 16 16 17
16 16 25 23 23 22 21 20 20 23 23 23 23 24 23 23 21 20 21 21 20 19 18 17 15 15 16 15 14 10 5 4 14 15 16 16 15 15 15 15 16 16 16
13 15 23 22 22 21 22 22 20 24 23 23 24 24 23 22 20 22 22 20 19 19 18 17 16 16 16 15 13 8 4 5 14 16 16 15 14 14 15 14 14 14 14
11 14 20 23 21 18 22 23 22 23 23 25 25 24 23 21 20 23 21 18 20 18 17 17 16 15 15 14 12 7 5 9 13 13 15 14 13 14 13 13 13 13 13
14 14 16 20 22 21 21 20 22 23 24 25 24 24 23 20 20 22 22 17 19 19 17 16 16 16 14 13 11 11 9 5 13 14 14 12 12 13 12 12 12 11 11
13 14 16 15 21 23 23 22 24 24 25 24 26 27 23 20 21 23 20 18 20 18 17 16 15 15 13 11 9 7 5 9 10 13 12 10 11 11 11 11 10 10 10
14 14 15 16 19 21 20 24 24 24 23 19 20 23 20 22 22 17 24 20 17 16 16 15 14 16 16 10 7 6 4 8 9 12 11 9 10 10 10 9 9 9 9
19 14 18 20 21 20 15 18 17 18 18 18 21 22 20 21 20 16 18 18 16 16 14 13 13 12 10 10 8 5 6 7 8 10 11 7 8 8 8 7 7 7 7
17 15 18 19 20 20 15 10 15 11 14 14 17 22 17 14 17 14 13 13 15 15 14 13 12 7 7 6 6 6 6 6 6 9 11 7 6 7 6 6 5 5 5
20 19 16 10 18 19 17 12 12 7 11 17 18 21 18 13 10 14 13 11 13 14 14 12 9 8 7 6 4 4 3 5 4 4 13 11 7 7 6 6 5 5 5
13 21 21 21 19 19 15 19 14 13 15 15 16 15 13 14 12 14 11 13 13 11 11 9 8 7 5 5 5 4 4 3 4 4 7 12 12 9 8 8 7 7 5
9 14 16 13 17 18 18 14 10 12 17 11 15 24 16 17 14 15 11 8 11 12 11 9 8 7 4 3 4 4 5 5 4 5 5 7 13 12 11 10 10 9 8
11 17 22 13 13 18 15 12 9 12 12 13 16 21 23 19 16 12 6 7 13 11 10 6 5 4 4 4 3 2 2 3 5 7 6 7 7 10 14 13 11 10 10
5 12 24 19 16 18 14 10 12 13 9 13 15 15 19 20 18 12 9 11 14 10 7 5 4 5 3 3 2 3 3 3 5 6 5 5 6 5 7 16 15 12 8
7 7 17 19 17 19 13 10 8 10 10 13 11 14 18 16 19 13 10 11 12 6 5 4 5 3 3 3 4 4 4 3 3 3 5 6 5 6 7 6 11 11 12
7 8 13 20 21 14 12 10 10 11 10 10 8 17 19 18 18 13 9 10 10 7 7 7 5 7 4 3 3 4 5 3 4 3 3 4 3 3 3 7 8 2 5
7 7 9 17 20 15 12 10 11 11 10 9 8 13 17 17 17 13 10 8 8 6 7 8 6 4 3 4 3 2 2 3 2 1 0 2 3 7 5 7 6 2 4
9 9 16 15 18 15 16 10 9 9 8 9 9 9 10 15 16 14 12 8 8 6 6 6 5 6 4 2 1 2 1 1 1 4 3 2 1 1 1 1 2 2 3
14 10 18 19 17 16 17 13 15 10 10 8 7 8 8 14 14 12 12 10 5 3 5 5 4 4 3 1 2 2 3 3 2 1 2 2 0 2 3 3 4 5 5
12 10 13 21 23 17 18 15 13 12 9 8 9 11 9 9 13 13 12 10 7 4 4 4 1 3 1 2 2 2 1 2 3 2 2 2 1 3 3 3 4 3 5
11 8 3 10 16 16 16 16 15 14 13 11 10 9 8 7 7 9 11 10 8 5 6 4 2 3 4 4 4 3 3 2 2 3 3 3 3 2 2 4 6 6 7
Wind_Direction
149 150 159 152 159 158 150 152 149 149 148 149 149 142 139 138 133 129 134 130 129 127 124 116 116 116 107 99 91 84 83 83 87 85 79 75 76 71 65 58 66 69 67
153 154 161 155 160 157 152 153 151 151 149 150 147 145 143 141 138 134 135 130 124 119 117 120 118 110 104 101 95 90 89 89 93 100 94 84 74 69 67 69 66 72 70
159 159 162 159 160 156 154 150 152 152 149 148 148 147 145 143 141 140 137 130 125 120 125 116 103 101 105 100 96 92 88 79 89 132 101 84 74 72 75 77 76 73 72
164 160 167 162 159 159 157 151 153 155 151 148 149 150 146 145 141 144 144 136 129 125 113 104 101 97 99 99 97 96 83 64 52 152 82 84 80 76 79 79 77 78 75
147 161 164 164 163 162 160 157 155 157 155 152 151 152 151 146 139 141 133 131 126 116 110 107 104 103 103 105 99 95 94 84 62 79 77 79 81 76 78 83 81 75 73
141 163 151 163 166 163 163 163 161 161 160 155 152 153 151 142 139 141 125 120 118 118 119 117 116 114 109 106 101 101 106 79 95 93 89 78 82 87 84 83 82 80 78
153 152 163 166 163 162 165 168 170 164 163 158 154 155 148 138 141 134 122 118 116 117 118 120 120 117 111 107 104 105 87 32 96 91 86 86 86 86 84 81 78 77 78
162 153 168 166 163 165 167 170 173 167 161 158 154 152 142 142 138 129 124 124 126 124 125 125 125 119 115 113 111 113 70 12 92 88 85 86 88 87 85 83 80 80 77
159 174 167 175 171 166 169 170 169 159 156 156 151 143 137 143 136 130 125 130 133 128 126 128 127 123 121 118 117 110 75 60 97 109 106 98 94 92 89 86 84 83 80
181 187 177 176 179 174 172 164 158 152 152 150 140 133 138 142 135 131 128 135 133 128 130 131 131 127 122 118 117 127 132 123 103 95 88 97 99 97 93 91 89 87 85
178 175 183 175 177 177 174 167 155 152 146 138 134 131 144 160 155 146 141 132 130 132 133 133 130 125 120 119 134 162 207 111 101 100 101 109 108 106 106 104 100 99 96
166 186 192 181 177 176 163 167 166 156 149 145 141 147 168 158 162 153 134 130 123 129 135 134 138 146 150 140 159 216 190 119 108 105 111 118 114 114 111 110 106 100 96
174 198 204 182 176 176 164 171 163 159 154 152 151 167 168 164 150 139 140 141 140 145 150 152 158 182 189 157 177 135 135 119 120 110 119 125 122 116 116 115 112 107 104
194 208 214 182 171 180 164 173 163 163 156 149 163 175 157 168 152 147 151 160 161 176 159 163 184 166 170 160 157 155 157 134 128 130 140 140 140 137 137 135 129 121 117
196 202 185 201 172 174 169 175 161 158 157 164 177 180 167 159 167 146 157 172 183 186 171 180 180 168 178 167 151 147 160 171 156 158 141 162 167 171 169 167 164 158 153
275 189 193 213 180 168 177 183 167 163 174 170 163 152 145 185 160 156 172 182 195 175 172 175 176 178 183 184 174 175 182 184 197 191 158 170 183 190 199 193 193 192 191
298 192 181 180 177 167 172 178 179 169 177 164 169 157 170 186 168 168 179 173 170 182 174 179 173 177 185 195 190 188 194 198 198 204 207 175 184 201 210 218 215 211 214
307 195 155 176 205 159 174 170 171 169 169 165 170 159 177 177 166 165 165 170 171 172 175 176 177 191 194 192 206 194 241 225 239 220 203 222 208 196 208 219 225 226 229
229 240 162 169 195 158 173 174 165 171 165 164 165 165 172 166 163 170 169 170 167 170 175 177 184 183 190 191 225 232 228 226 231 247 256 247 224 248 236 199 215 225 232
202 268 188 163 186 158 162 159 172 164 165 162 164 161 172 165 169 172 167 161 167 161 172 176 185 209 196 200 218 232 232 232 248 237 244 235 242 233 253 256 197 219 221
210 213 208 172 180 155 159 169 172 170 165 160 165 164 171 168 166 174 162 160 171 171 177 176 181 189 197 217 254 235 237 229 239 243 246 258 289 238 279 320 286 89 130
166 224 239 188 179 162 160 174 176 169 164 163 161 165 170 167 165 170 166 160 176 172 175 190 187 196 228 202 241 357 238 181 188 180 4 354 305 10 34 36 2 7 76
160 173 253 234 187 163 166 164 170 161 161 161 168 172 164 167 168 171 161 171 175 181 183 190 194 213 214 167 284 321 257 273 14 135 145 98 1 6 53 129 183 152 163
195 179 214 224 211 166 166 164 167 164 164 167 160 159 165 173 166 164 162 163 160 131 176 193 216 239 264 127 189 236 308 329 308 214 157 140 353 211 206 206 211 186 184
183 180 201 205 216 158 169 165 168 168 163 160 164 158 168 169 166 160 157 156 156 161 180 186 140 46 70 287 235 129 198 242 264 268 298 327 306 241 248 240 242 210 220
164 139 112 229 220 175 170 172 172 171 163 164 161 159 159 155 149 156 158 148 141 144 148 140 138 312 267 253 266 245 225 221 170 212 239 257 268 259 239 213 219 222 228